OK1KKY-18 Weather Reports


time (UTC)temp
C
wind
direction
speed
KPH
gust
KPH
rain 1hr
cm
rain 24hr
cm
rain mn
cm
humidity
%
barometer
mb
20260504213559 13 0.0 0.0 0.00 0.00 0.00 65 1013.4
20260504212558 13 0.0 0.0 0.00 0.00 0.00 66 1013.5
20260504211559 13 0.0 0.0 0.00 0.00 0.00 64 1013.5
20260504210559 13 0.0 0.0 0.00 0.00 0.00 64 1013.6
20260504205559 13 0.0 0.0 0.00 0.00 0.00 65 1013.7
20260504204559 13 0.0 0.0 0.00 0.00 0.00 65 1013.6
20260504203559 13 0.0 0.0 0.00 0.00 0.00 64 1013.6
20260504202559 13 0.0 0.0 0.00 0.00 0.00 64 1013.7
20260504200559 13 0.0 0.0 0.00 0.00 0.00 65 1013.8
20260504195559 13 0.0 0.0 0.00 0.00 0.00 65 1013.7
20260504194559 13 0.0 0.0 0.00 0.00 0.00 64 1013.7
20260504193559 13 0.0 0.0 0.00 0.00 0.00 66 1013.7
20260504192559 13 0.0 0.0 0.00 0.00 0.00 65 1013.7
20260504191601 13 0.0 0.0 0.00 0.00 0.00 64 1013.6
20260504190559 14 0.0 0.0 0.00 0.00 0.00 63 1013.6
20260504184559 13 0.0 0.0 0.00 0.00 0.00 65 1013.6
20260504183559 13 0.0 0.0 0.00 0.00 0.00 64 1013.5
20260504182559 14 0.0 0.0 0.00 0.00 0.00 64 1013.5
20260504181559 14 0.0 0.0 0.00 0.00 0.00 63 1013.6
20260504180559 15 0.0 0.0 0.00 0.00 0.00 63 1013.5
20260504175559 15 0.0 0.0 0.00 0.00 0.00 60 1013.4
20260504174559 16 0.0 0.0 0.00 0.00 0.00 58 1013.4
20260504173602 17 0.0 0.0 0.00 0.00 0.00 56 1013.3
20260504172559 17 0.0 0.0 0.00 0.00 0.00 55 1013.2
20260504171559 18 0.0 0.0 0.00 0.00 0.00 53 1013.1
20260504170559 19 0.0 0.0 0.00 0.00 0.00 51 1013.1
20260504150557 22 0.0 0.0 0.00 0.00 0.00 38 1013.3
20260504140557 23 0.0 0.0 0.00 0.00 0.00 32 1013.5
20260504130557 22 0.0 0.0 0.00 0.00 0.00 35 1013.9
20260504110557 20 0.0 0.0 0.00 0.00 0.00 40 1014.8
20260504100557 18 0.0 0.0 0.00 0.00 0.00 45 1015.3
20260504081557 17 0.0 0.0 0.00 0.00 0.00 43 1015.6
20260504080557 16 0.0 0.0 0.00 0.00 0.00 45 1015.3
20260504050557 8 0.0 0.0 0.00 0.00 0.00 68 1015.5
20260504045557 8 0.0 0.0 0.00 0.00 0.00 69 1015.6
20260504044557 8 0.0 0.0 0.00 0.00 0.00 69 1015.6
20260504043557 8 0.0 0.0 0.00 0.00 0.00 71 1015.7
20260504042557 7 0.0 0.0 0.00 0.00 0.00 71 1015.7
20260504041557 7 0.0 0.0 0.00 0.00 0.00 71 1015.8
20260504040557 7 0.0 0.0 0.00 0.00 0.00 72 1015.7
20260504035557 7 0.0 0.0 0.00 0.00 0.00 73 1015.7
20260504034557 7 0.0 0.0 0.00 0.00 0.00 73 1015.8
20260504033557 7 0.0 0.0 0.00 0.00 0.00 73 1015.7
20260504032559 7 0.0 0.0 0.00 0.00 0.00 73 1015.6
20260504031601 7 0.0 0.0 0.00 0.00 0.00 72 1015.6
20260504030556 7 0.0 0.0 0.00 0.00 0.00 72 1015.6
20260504025555 7 0.0 0.0 0.00 0.00 0.00 72 1015.6
20260504024556 7 0.0 0.0 0.00 0.00 0.00 71 1015.7
20260504023556 7 0.0 0.0 0.00 0.00 0.00 71 1015.6
20260504022556 7 0.0 0.0 0.00 0.00 0.00 71 1015.6
20260504021556 7 0.0 0.0 0.00 0.00 0.00 71 1015.6
20260504020556 7 0.0 0.0 0.00 0.00 0.00 71 1015.6
20260504014556 7 0.0 0.0 0.00 0.00 0.00 70 1015.5
20260504013555 7 0.0 0.0 0.00 0.00 0.00 70 1015.4
20260504012556 8 0.0 0.0 0.00 0.00 0.00 70 1015.5
20260504011555 8 0.0 0.0 0.00 0.00 0.00 69 1015.5
20260504010556 8 0.0 0.0 0.00 0.00 0.00 69 1015.6
20260504005556 8 0.0 0.0 0.00 0.00 0.00 69 1015.6
20260504004556 8 0.0 0.0 0.00 0.00 0.00 68 1015.6
20260504003556 8 0.0 0.0 0.00 0.00 0.00 68 1015.6
20260504002556 8 0.0 0.0 0.00 0.00 0.00 67 1015.7
20260504001556 8 0.0 0.0 0.00 0.00 0.00 67 1015.6
20260504000556 8 0.0 0.0 0.00 0.00 0.00 66 1015.7
20260503235556 8 0.0 0.0 0.00 0.00 0.00 67 1015.8
20260503234556 9 0.0 0.0 0.00 0.00 0.00 66 1015.8
20260503233556 9 0.0 0.0 0.00 0.00 0.00 66 1015.7
20260503232556 9 0.0 0.0 0.00 0.00 0.00 66 1015.8
20260503231556 9 0.0 0.0 0.00 0.00 0.00 66 1016.0
20260503230556 9 0.0 0.0 0.00 0.00 0.00 66 1016.0
20260503225556 9 0.0 0.0 0.00 0.00 0.00 65 1016.0
20260503224556 9 0.0 0.0 0.00 0.00 0.00 65 1016.0
20260503223556 10 0.0 0.0 0.00 0.00 0.00 64 1016.0
20260503222556 10 0.0 0.0 0.00 0.00 0.00 64 1016.0
20260503221556 10 0.0 0.0 0.00 0.00 0.00 63 1016.0
20260503220556 10 0.0 0.0 0.00 0.00 0.00 63 1016.0
20260503215556 10 0.0 0.0 0.00 0.00 0.00 62 1016.0